2016-02-17 00:03:08 r, 17.51m,0000000008Hz,0000052138c,0000000.113s, 001.9C,00002195
2016-02-17 00:13:05 r, 17.52m,0000000009Hz,0000052655c,0000000.114s, 001.9C,00002195
2016-02-17 00:23:07 r, 17.52m,0000000009Hz,0000052840c,0000000.115s, 001.9C,00002195
2016-02-17 00:33:06 r, 17.53m,0000000009Hz,0000053135c,0000000.115s, 001.9C,00002195
2016-02-17 00:43:05 r, 17.52m,0000000009Hz,0000052813c,0000000.115s, 001.6C,00002195
2016-02-17 00:53:05 r, 17.46m,0000000009Hz,0000049891c,0000000.108s, 001.6C,00002195
2016-02-17 01:03:05 r, 17.46m,0000000009Hz,0000049997c,0000000.109s, 001.6C,00002195
2016-02-17 01:13:05 r, 17.48m,0000000009Hz,0000050672c,0000000.110s, 001.6C,00002195
2016-02-17 01:23:06 r, 17.49m,0000000009Hz,0000050998c,0000000.111s, 001.6C,00002195
2016-02-17 01:33:07 r, 17.49m,0000000009Hz,0000051001c,0000000.111s, 001.6C,00002195
2016-02-17 01:43:05 r, 17.58m,0000000008Hz,0000055597c,0000000.121s, 001.6C,00002195
2016-02-17 01:53:07 r, 17.52m,0000000008Hz,0000052966c,0000000.115s, 001.2C,00002195
2016-02-17 02:03:05 r, 17.32m,0000000010Hz,0000043944c,0000000.095s, 001.2C,00002195
2016-02-17 02:13:05 r, 17.52m,0000000009Hz,0000052506c,0000000.114s, 001.2C,00002195
2016-02-17 02:23:06 r, 17.62m,0000000008Hz,0000057499c,0000000.125s, 001.2C,00002195
2016-02-17 02:33:08 r, 17.61m,0000000008Hz,0000057194c,0000000.124s, 001.2C,00002195
2016-02-17 02:43:05 r, 17.62m,0000000008Hz,0000057734c,0000000.125s, 001.2C,00002195
2016-02-17 02:53:07 r, 17.64m,0000000007Hz,0000058914c,0000000.128s, 001.2C,00002195
2016-02-17 03:03:06 r, 17.66m,0000000008Hz,0000059530c,0000000.129s, 001.2C,00002195
2016-02-17 03:13:05 r, 17.66m,0000000008Hz,0000059595c,0000000.129s, 001.2C,00002195
2016-02-17 03:23:08 r, 17.67m,0000000008Hz,0000060179c,0000000.131s, 001.2C,00002195
2016-02-17 03:33:06 r, 17.64m,0000000008Hz,0000058604c,0000000.127s, 000.9C,00002195
2016-02-17 03:43:05 r, 16.31m,0000000026Hz,0000017324c,0000000.038s, 000.6C,00002195
2016-02-17 03:53:06 r, 14.83m,0000000104Hz,0000004449c,0000000.010s, 000.6C,00002195
2016-02-17 04:03:07 r, 14.55m,0000000135Hz,0000000000c,0000000.000s, 000.9C,00002195
2016-02-17 04:13:05 r, 14.54m,0000000136Hz,0000000000c,0000000.000s, 000.9C,00002195
2016-02-17 04:23:07 r, 14.50m,0000000141Hz,0000000000c,0000000.000s, 001.2C,00002195
2016-02-17 04:33:06 r, 14.63m,0000000123Hz,0000003711c,0000000.008s, 001.2C,00002195
2016-02-17 04:43:05 r, 14.37m,0000000159Hz,0000000000c,0000000.000s, 001.6C,00002195
2016-02-17 04:53:06 r, 14.26m,0000000176Hz,0000000000c,0000000.000s, 001.9C,00002195
2016-02-17 05:03:06 r, 14.43m,0000000151Hz,0000000000c,0000000.000s, 001.9C,00002195
2016-02-17 05:13:05 r, 14.55m,0000000135Hz,0000000000c,0000000.000s, 002.2C,00002195
2016-02-17 05:23:08 r, 14.36m,0000000160Hz,0000000000c,0000000.000s, 002.5C,00002195
2016-02-17 05:33:06 r, 14.28m,0000000172Hz,0000000000c,0000000.000s, 002.9C,00002195
2016-02-17 05:43:05 r, 14.28m,0000000173Hz,0000000000c,0000000.000s, 003.2C,00002195
2016-02-17 05:53:08 r, 14.23m,0000000180Hz,0000000000c,0000000.000s, 003.2C,00002195
2016-02-17 06:03:06 r, 14.22m,0000000182Hz,0000000000c,0000000.000s, 003.2C,00002195
2016-02-17 06:13:05 r, 14.21m,0000000183Hz,0000000000c,0000000.000s, 003.5C,00002195
2016-02-17 06:23:07 r, 14.41m,0000000153Hz,0000000000c,0000000.000s, 003.8C,00002195
2016-02-17 06:33:05 r, 14.40m,0000000155Hz,0000000000c,0000000.000s, 004.1C,00002195
2016-02-17 06:43:05 r, 14.51m,0000000140Hz,0000000000c,0000000.000s, 004.1C,00002195
2016-02-17 06:53:05 r, 14.18m,0000000188Hz,0000000000c,0000000.000s, 004.5C,00002195
2016-02-17 07:03:08 r, 12.70m,0000000738Hz,0000000000c,0000000.000s, 004.8C,00002195
2016-02-17 07:13:05 r, 10.74m,0000004533Hz,0000000000c,0000000.000s, 004.8C,00002195
2016-02-17 07:23:06 r, 08.95m,0000023326Hz,0000000000c,0000000.000s, 005.1C,00002195
2016-02-17 07:33:06 r, 07.72m,0000072818Hz,0000000000c,0000000.000s, 005.4C,00002195
2016-02-17 07:43:05 r, 06.82m,0000167580Hz,0000000000c,0000000.000s, 005.4C,00002195
2016-02-17 07:53:08 r, 06.22m,0000289463Hz,0000000000c,0000000.000s, 006.1C,00002195
2016-02-17 08:03:05 r, 00.00m,0000502404Hz,0000000000c,0000000.000s, 006.4C,00002195
2016-02-17 08:13:05 r, 00.00m,0000561433Hz,0000000000c,0000000.000s, 006.7C,00002195
2016-02-17 08:23:08 r, 00.00m,0000561463Hz,0000000000c,0000000.000s, 007.0C,00002195
2016-02-17 08:33:05 r, 00.00m,0000561486Hz,0000000000c,0000000.000s, 007.7C,00002195
2016-02-17 08:43:05 r, 00.00m,0000561609Hz,0000000000c,0000000.000s, 008.0C,00002195
2016-02-17 08:53:06 r, 00.00m,0000561821Hz,0000000000c,0000000.000s, 008.7C,00002195
2016-02-17 09:03:08 r, 00.00m,0000561874Hz,0000000000c,0000000.000s, 009.0C,00002195
2016-02-17 09:13:05 r, 00.00m,0000561866Hz,0000000000c,0000000.000s, 009.0C,00002195
2016-02-17 09:23:05 r, 00.00m,0000561799Hz,0000000000c,0000000.000s, 009.3C,00002195
2016-02-17 09:33:08 r, 00.00m,0000561965Hz,0000000000c,0000000.000s, 009.6C,00002195
2016-02-17 09:43:05 r, 00.00m,0000562013Hz,0000000000c,0000000.000s, 009.9C,00002195
2016-02-17 09:53:05 r, 00.00m,0000562112Hz,0000000000c,0000000.000s, 010.3C,00002195
2016-02-17 10:03:06 r, 00.00m,0000562258Hz,0000000000c,0000000.000s, 010.9C,00002195
2016-02-17 10:13:05 r, 00.00m,0000562141Hz,0000000000c,0000000.000s, 011.6C,00002195
2016-02-17 10:23:05 r, 00.00m,0000562181Hz,0000000000c,0000000.000s, 011.9C,00002195
2016-02-17 10:33:06 r, 00.00m,0000562318Hz,0000000000c,0000000.000s, 012.5C,00002195
2016-02-17 10:43:05 r, 00.00m,0000562398Hz,0000000000c,0000000.000s, 012.5C,00002195
2016-02-17 10:53:05 r, 00.00m,0000562412Hz,0000000000c,0000000.000s, 012.5C,00002195
2016-02-17 11:03:06 r, 00.00m,0000562535Hz,0000000000c,0000000.000s, 013.2C,00002195
2016-02-17 11:13:05 r, 00.00m,0000562642Hz,0000000000c,0000000.000s, 013.5C,00002195
2016-02-17 11:23:06 r, 00.00m,0000562638Hz,0000000000c,0000000.000s, 014.1C,00002195
2016-02-17 11:33:05 r, 00.00m,0000562692Hz,0000000000c,0000000.000s, 014.5C,00002195
2016-02-17 11:43:05 r, 00.00m,0000562708Hz,0000000000c,0000000.000s, 014.5C,00002195
2016-02-17 11:53:05 r, 00.00m,0000562612Hz,0000000000c,0000000.000s, 014.5C,00002195
2016-02-17 12:03:06 r, 00.00m,0000562596Hz,0000000000c,0000000.000s, 014.1C,00002195
2016-02-17 12:13:05 r, 00.00m,0000562568Hz,0000000000c,0000000.000s, 014.1C,00002195
2016-02-17 12:23:05 r, 00.00m,0000562548Hz,0000000000c,0000000.000s, 014.1C,00002195
2016-02-17 12:33:06 r, 00.00m,0000562474Hz,0000000000c,0000000.000s, 014.1C,00002195
2016-02-17 12:43:05 r, 00.00m,0000562621Hz,0000000000c,0000000.000s, 014.1C,00002195
2016-02-17 12:53:05 r, 00.00m,0000562557Hz,0000000000c,0000000.000s, 014.1C,00002195
2016-02-17 13:03:07 r, 00.00m,0000562712Hz,0000000000c,0000000.000s, 014.8C,00002195
2016-02-17 13:13:06 r, 00.00m,0000562761Hz,0000000000c,0000000.000s, 015.4C,00002195
2016-02-17 13:23:05 r, 00.00m,0000562851Hz,0000000000c,0000000.000s, 016.1C,00002195
2016-02-17 13:33:06 r, 00.00m,0000562892Hz,0000000000c,0000000.000s, 016.7C,00002195
2016-02-17 13:43:08 r, 00.00m,0000563168Hz,0000000000c,0000000.000s, 017.7C,00002195
2016-02-17 13:53:05 r, 00.00m,0000563087Hz,0000000000c,0000000.000s, 017.4C,00002195
2016-02-17 14:03:08 r, 00.00m,0000562900Hz,0000000000c,0000000.000s, 017.0C,00002195
2016-02-17 14:13:06 r, 00.00m,0000563008Hz,0000000000c,0000000.000s, 017.4C,00002195
2016-02-17 14:23:06 r, 00.00m,0000563170Hz,0000000000c,0000000.000s, 017.7C,00002195
2016-02-17 14:33:06 r, 00.00m,0000562966Hz,0000000000c,0000000.000s, 017.0C,00002195
2016-02-17 14:43:06 r, 00.00m,0000562957Hz,0000000000c,0000000.000s, 017.0C,00002195
2016-02-17 14:53:06 r, 00.00m,0000562877Hz,0000000000c,0000000.000s, 016.7C,00002195
2016-02-17 15:03:06 r, 00.00m,0000562914Hz,0000000000c,0000000.000s, 016.7C,00002195
2016-02-17 15:13:08 r, 00.00m,0000562944Hz,0000000000c,0000000.000s, 017.0C,00002195
2016-02-17 15:23:06 r, 00.00m,0000562802Hz,0000000000c,0000000.000s, 016.7C,00002195
2016-02-17 15:33:07 r, 00.00m,0000562822Hz,0000000000c,0000000.000s, 016.1C,00002195
2016-02-17 15:43:06 r, 00.00m,0000562722Hz,0000000000c,0000000.000s, 016.4C,00002195
2016-02-17 15:53:06 r, 00.00m,0000562741Hz,0000000000c,0000000.000s, 016.1C,00002195
2016-02-17 16:03:08 r, 00.00m,0000562689Hz,0000000000c,0000000.000s, 016.1C,00002195
2016-02-17 16:13:06 r, 00.00m,0000562659Hz,0000000000c,0000000.000s, 015.7C,00002195
2016-02-17 16:23:06 r, 00.00m,0000562555Hz,0000000000c,0000000.000s, 015.4C,00002195
2016-02-17 16:33:06 r, 00.00m,0000562713Hz,0000000000c,0000000.000s, 015.4C,00002195
2016-02-17 16:43:06 r, 00.00m,0000562649Hz,0000000000c,0000000.000s, 015.4C,00002195
2016-02-17 16:53:06 r, 00.00m,0000562572Hz,0000000000c,0000000.000s, 015.1C,00002195
2016-02-17 17:03:06 r, 00.00m,0000562599Hz,0000000000c,0000000.000s, 015.4C,00002195
2016-02-17 17:13:07 r, 00.00m,0000562674Hz,0000000000c,0000000.000s, 015.4C,00002195
2016-02-17 17:23:06 r, 00.00m,0000469663Hz,0000000000c,0000000.000s, 015.1C,00002195
2016-02-17 17:33:07 r, 06.37m,0000252261Hz,0000000000c,0000000.000s, 015.1C,00002195
2016-02-17 17:43:06 r, 07.04m,0000135735Hz,0000000000c,0000000.000s, 014.8C,00002195
2016-02-17 17:53:06 r, 08.01m,0000055524Hz,0000000000c,0000000.000s, 014.5C,00002195
2016-02-17 18:03:08 r, 09.34m,0000016299Hz,0000000000c,0000000.000s, 014.1C,00002195
2016-02-17 18:13:06 r, 11.09m,0000003277Hz,0000000000c,0000000.000s, 013.5C,00002195
2016-02-17 18:23:06 r, 12.69m,0000000748Hz,0000000000c,0000000.000s, 013.5C,00002195
2016-02-17 18:33:06 r, 13.69m,0000000297Hz,0000000000c,0000000.000s, 013.8C,00002195
2016-02-17 18:43:06 r, 13.95m,0000000233Hz,0000000000c,0000000.000s, 013.8C,00002195
2016-02-17 18:53:06 r, 14.05m,0000000213Hz,0000000000c,0000000.000s, 014.1C,00002195
2016-02-17 19:03:06 r, 14.01m,0000000220Hz,0000000000c,0000000.000s, 014.5C,00002195
2016-02-17 19:13:06 r, 14.05m,0000000214Hz,0000000000c,0000000.000s, 014.5C,00002195
2016-02-17 19:23:06 r, 13.98m,0000000226Hz,0000000000c,0000000.000s, 014.8C,00002195
2016-02-17 19:33:06 r, 13.83m,0000000263Hz,0000000000c,0000000.000s, 014.8C,00002195
2016-02-17 19:43:06 r, 13.86m,0000000253Hz,0000000000c,0000000.000s, 014.8C,00002195
2016-02-17 19:53:06 r, 13.83m,0000000263Hz,0000000000c,0000000.000s, 015.1C,00002195
2016-02-17 20:03:06 r, 13.84m,0000000258Hz,0000000000c,0000000.000s, 015.1C,00002195
2016-02-17 20:13:08 r, 13.74m,0000000285Hz,0000000000c,0000000.000s, 015.1C,00002195
2016-02-17 20:23:06 r, 13.71m,0000000292Hz,0000000000c,0000000.000s, 015.1C,00002195
2016-02-17 20:33:06 r, 13.77m,0000000277Hz,0000000000c,0000000.000s, 015.1C,00002195
2016-02-17 20:43:06 r, 13.76m,0000000280Hz,0000000000c,0000000.000s, 015.1C,00002195
2016-02-17 20:53:06 r, 13.73m,0000000286Hz,0000000000c,0000000.000s, 014.8C,00002195
2016-02-17 21:03:08 r, 13.66m,0000000306Hz,0000000000c,0000000.000s, 015.1C,00002195
2016-02-17 21:13:06 r, 13.62m,0000000319Hz,0000000000c,0000000.000s, 014.8C,00002195
2016-02-17 21:23:06 r, 13.69m,0000000298Hz,0000000000c,0000000.000s, 014.8C,00002195
2016-02-17 21:33:07 r, 13.64m,0000000312Hz,0000000000c,0000000.000s, 014.8C,00002195
2016-02-17 21:43:06 r, 13.66m,0000000304Hz,0000000000c,0000000.000s, 015.1C,00002195
2016-02-17 21:53:06 r, 13.62m,0000000319Hz,0000000000c,0000000.000s, 015.1C,00002195
2016-02-17 22:03:06 r, 13.59m,0000000327Hz,0000000000c,0000000.000s, 015.1C,00002195
2016-02-17 22:13:06 r, 13.60m,0000000325Hz,0000000000c,0000000.000s, 015.1C,00002195
2016-02-17 22:23:06 r, 13.61m,0000000320Hz,0000000000c,0000000.000s, 015.1C,00002195
2016-02-17 22:33:08 r, 13.62m,0000000318Hz,0000000000c,0000000.000s, 015.1C,00002195
2016-02-17 22:43:06 r, 13.64m,0000000312Hz,0000000000c,0000000.000s, 015.4C,00002195
2016-02-17 22:53:06 r, 13.66m,0000000306Hz,0000000000c,0000000.000s, 015.1C,00002195
2016-02-17 23:03:06 r, 13.66m,0000000306Hz,0000000000c,0000000.000s, 015.1C,00002195
2016-02-17 23:13:06 r, 13.66m,0000000306Hz,0000000000c,0000000.000s, 015.1C,00002195
2016-02-17 23:23:06 r, 13.73m,0000000287Hz,0000000000c,0000000.000s, 015.4C,00002195
2016-02-17 23:33:06 r, 13.76m,0000000278Hz,0000000000c,0000000.000s, 015.4C,00002195
2016-02-17 23:43:07 r, 13.80m,0000000268Hz,0000000000c,0000000.000s, 015.4C,00002195
2016-02-17 23:53:06 r, 13.80m,0000000269Hz,0000000000c,0000000.000s, 015.4C,00002195
